Dewpoint
61 61 60 60 60 60 60 60 60 60 59 59 59 59 59 59 59 59 59 59 59 59 59 59 59 59 59 59 59 59 59 59 59 59 58 57 56 56 55 55 55 55 56 56 57 58 59 54 46 41 43 46 48 49 51 54 55 55 55 55 55 55 55 57 59 59 59 59 59 59 59 59 59 59 59 58 58 58 58 58 58 59 59 59 60 60 61 62 63 64 64 64 64 64 64 64 63 63 62 63 64 65 65
61 60 60 60 60 60 60 60 59 59 59 59 59 59 59 59 59 59 59 59 59 59 60 60 60 60 59 59 59 59 59 59 59 59 58 57 56 55 55 55 55 55 55 55 56 57 58 51 45 41 43 46 47 49 50 53 55 55 55 55 55 55 56 57 58 59 59 59 59 59 59 59 59 58 58 58 58 58 58 58 58 59 59 59 59 59 60 61 61 62 63 63 64 64 64 64 64 64 63 63 64 65 65
61 61 61 60 60 60 60 60 60 59 59 59 59 59 59 59 59 59 59 59 59 60 60 60 60 60 60 59 59 59 59 59 59 59 58 57 56 55 55 55 55 55 55 55 55 56 57 53 46 41 42 45 47 49 50 52 54 54 55 55 55 55 55 57 58 58 58 59 59 59 59 59 58 58 58 58 58 58 58 58 59 59 59 59 59 59 59 60 60 60 61 61 62 63 64 64 64 64 64 63 64 64 64
61 62 62 62 62 61 61 61 60 59 59 59 59 59 59 59 59 59 59 59 60 60 61 61 61 61 60 60 59 59 59 59 59 59 58 57 56 56 55 55 55 55 55 55 55 55 53 52 48 44 42 44 46 48 50 54 54 54 54 55 55 55 56 57 58 58 58 58 59 59 59 58 58 58 58 58 58 58 58 59 59 59 58 58 58 59 59 59 59 59 59 60 60 61 62 63 63 63 63 63 64 64 64
61 62 62 62 62 62 62 62 61 61 60 59 59 59 59 59 59 59 59 59 59 60 61 61 60 60 60 60 60 59 59 59 59 59 58 58 57 56 55 55 55 54 54 55 55 54 50 49 46 44 43 45 46 48 50 54 55 54 53 53 54 55 57 58 58 58 58 58 58 58 58 58 58 58 59 59 59 59 59 59 59 59 58 58 58 58 59 59 59 59 59 59 59 59 60 61 61 62 62 62 63 63 63
62 62 63 62 62 62 62 62 62 62 61 60 59 59 59 59 59 59 59 59 59 60 60 60 59 59 59 60 60 60 59 59 59 59 58 58 57 56 55 55 54 54 54 54 54 54 51 46 42 42 43 45 46 48 51 54 53 52 52 53 55 57 58 58 58 58 58 58 58 58 58 58 59 59 59 59 59 59 59 59 59 58 58 58 58 58 58 59 59 59 59 59 59 59 59 59 60 60 60 61 61 62 62
62 62 63 62 62 62 62 62 62 62 61 60 59 59 59 59 58 58 58 59 59 60 60 59 59 59 59 59 59 59 59 59 59 59 58 58 57 56 55 55 54 54 54 53 54 54 53 46 43 42 44 46 47 49 51 53 53 52 51 53 55 58 58 58 58 58 58 58 59 59 59 59 59 59 59 59 59 59 59 59 58 58 58 58 58 58 58 59 59 59 59 59 58 58 58 59 59 59 59 59 60 60 61
62 63 63 62 62 62 62 62 62 61 61 60 59 59 59 58 58 58 59 59 60 60 60 59 59 58 58 58 58 59 59 59 59 59 58 57 56 55 55 54 54 53 53 53 53 54 54 49 44 42 44 47 49 50 51 51 51 51 51 53 56 58 58 58 58 58 59 59 59 59 59 59 59 59 59 59 59 59 59 59 58 58 58 58 58 58 58 59 59 59 59 59 58 58 58 58 58 59 58 59 59 59 59
62 63 63 62 62 61 61 61 61 60 60 59 59 59 59 58 59 59 59 60 61 60 60 59 59 58 58 58 58 58 58 58 59 59 59 58 56 55 55 54 53 53 52 52 53 54 54 50 45 42 45 48 50 52 51 50 50 51 51 55 56 58 59 58 58 59 59 59 59 59 59 59 59 59 59 59 59 59 58 58 58 58 58 58 58 58 58 59 59 59 59 59 59 58 58 58 58 58 58 59 59 59 59
63 62 62 62 61 61 60 60 59 59 59 59 59 59 59 59 59 60 61 61 61 60 59 59 59 59 58 58 57 57 57 58 59 59 59 57 56 55 55 53 53 52 52 52 53 53 54 47 43 42 46 48 51 52 52 50 50 51 52 56 58 58 59 58 59 59 59 59 59 59 59 59 59 59 59 59 58 58 58 58 58 58 58 58 58 58 58 58 59 59 59 59 59 59 59 59 59 59 59 59 59 59 59
63 63 62 62 62 61 61 60 59 59 59 59 59 59 59 60 61 62 62 62 61 60 59 59 59 58 58 58 58 58 57 58 58 59 58 57 56 55 54 53 52 51 51 52 53 53 53 45 42 43 47 49 51 51 50 50 51 51 52 56 58 59 59 58 58 58 58 59 59 59 59 59 59 59 58 58 58 58 58 57 57 57 57 57 57 57 57 58 58 58 59 59 59 59 59 59 59 59 59 59 60 60 60
63 63 63 62 62 61 61 60 59 59 59 60 60 61 62 63 63 63 62 61 60 59 59 58 58 58 58 58 58 58 58 58 58 58 57 56 55 55 54 52 51 51 51 52 53 52 50 42 41 43 47 49 50 50 49 49 50 50 53 57 59 59 58 58 58 58 57 57 58 58 58 58 58 58 58 58 58 57 57 57 57 56 56 56 56 56 56 57 57 58 58 58 58 58 58 58 58 59 59 59 59 60 60
64 64 63 62 61 61 60 60 60 60 62 63 63 64 64 64 64 63 61 61 60 59 58 58 57 57 57 57 58 58 58 58 58 57 56 55 55 54 53 51 51 51 52 52 52 50 45 41 40 43 47 49 50 49 49 50 50 52 55 58 59 58 58 57 57 57 56 56 56 57 57 57 57 57 57 57 57 57 57 56 56 56 56 55 55 55 55 56 56 57 57 58 58 58 58 58 58 58 58 59 59 59 59
64 64 63 62 61 61 60 60 61 62 63 63 64 64 64 64 63 61 60 59 59 59 58 57 56 56 56 56 57 57 57 57 57 56 56 55 54 53 51 50 50 51 52 52 50 45 41 39 41 44 47 48 49 50 51 51 51 54 58 58 58 58 57 57 56 56 56 56 56 56 56 56 56 56 57 57 57 57 56 56 56 55 55 55 55 55 55 55 55 56 56 57 57 57 57 57 57 57 57 57 58 58 58
63 63 62 62 61 60 60 61 62 63 63 62 62 62 62 61 60 59 59 58 58 58 57 56 55 55 55 55 56 57 57 57 56 56 55 54 53 51 50 50 50 51 52 51 46 40 38 38 41 45 48 48 48 49 51 51 53 55 59 58 57 57 56 56 56 57 57 57 57 57 57 57 57 56 57 57 57 57 56 56 55 55 55 55 55 55 55 55 55 55 55 56 56 57 57 57 57 57 57 57 57 57 57
62 62 62 62 61 61 61 62 62 62 62 61 60 60 60 59 59 58 57 57 57 56 56 55 55 54 54 55 56 56 56 56 55 55 54 53 51 50 49 49 50 51 50 47 41 36 36 38 42 46 48 47 48 50 52 53 55 57 58 58 57 57 56 57 57 57 57 57 57 57 57 57 57 57 57 57 57 56 56 55 55 55 55 55 55 55 55 55 55 55 55 55 55 56 56 56 56 56 56 56 56 56 57
62 62 63 63 62 62 62 62 62 61 61 60 59 59 59 59 58 57 56 56 55 55 54 54 53 53 53 55 56 56 55 55 54 53 53 51 50 49 48 49 50 50 46 42 39 36 36 39 43 46 46 47 50 52 55 55 56 58 57 57 57 57 57 57 57 57 57 57 56 56 56 56 57 57 57 57 56 56 55 55 55 55 55 55 56 56 55 55 55 55 55 55 55 55 55 56 56 56 56 56 56 56 56
63 63 63 63 63 62 62 62 61 61 60 59 59 59 59 59 58 57 56 55 55 54 53 52 51 50 51 53 55 55 51 52 51 51 51 50 50 49 49 49 49 47 41 39 37 36 36 40 44 46 47 49 51 54 56 56 57 57 57 56 56 57 57 57 57 57 56 56 56 55 55 55 55 56 56 55 55 55 55 55 55 55 55 56 56 56 55 55 55 55 55 55 55 55 55 55 55 55 55 55 55 55 55
63 63 63 63 63 62 62 61 61 60 60 60 60 59 59 59 58 57 56 55 54 53 52 50 50 50 50 52 52 50 45 47 48 48 48 49 50 50 49 48 46 42 38 37 37 36 37 41 44 46 48 50 53 55 55 56 57 57 56 56 56 56 57 57 57 56 56 55 55 55 55 54 54 54 55 55 55 54 54 54 55 55 56 56 56 56 55 55 55 55 55 55 55 55 55 55 55 55 55 55 55 55 55
63 63 63 63 63 62 62 61 61 60 60 60 60 60 59 59 58 58 57 55 54 52 51 50 50 50 50 50 46 42 38 41 43 44 44 46 47 47 46 44 41 38 37 36 36 37 39 43 45 46 48 50 52 54 55 56 57 57 56 56 56 56 57 57 56 56 56 55 55 55 54 54 54 54 54 54 54 54 54 54 55 55 56 56 56 56 55 55 55 55 55 55 55 55 55 55 55 55 55 55 55 55 55
60 61 62 62 62 62 61 60 60 60 60 61 60 59 59 59 59 58 57 55 54 53 51 51 50 48 46 42 39 36 34 36 37 39 41 41 41 41 42 41 40 38 37 36 37 39 42 45 46 46 48 49 51 52 55 56 57 57 57 57 57 57 57 56 56 56 56 55 55 54 54 54 54 54 55 55 55 55 54 54 55 55 56 56 56 56 55 55 55 55 55 55 55 55 55 55 55 55 55 55 55 55 55
58 59 59 60 60 59 59 58 58 58 59 60 59 58 57 58 58 57 57 54 52 51 51 50 46 40 38 35 34 33 32 33 34 35 37 37 37 38 40 40 40 39 37 37 39 41 44 46 46 46 47 48 50 51 55 56 57 57 57 57 57 57 56 56 56 56 55 55 55 54 54 54 54 55 55 55 55 55 55 55 55 55 55 55 56 55 55 55 55 55 55 55 55 55 55 55 55 55 55 55 55 54 54
57 57 57 57 57 57 56 55 55 55 56 59 59 56 55 55 55 55 55 50 49 48 49 44 39 36 35 33 32 32 31 32 32 33 34 36 37 38 39 39 39 38 37 38 40 43 45 46 46 46 46 47 49 51 54 56 56 57 57 57 57 57 56 56 56 56 55 55 54 54 54 54 54 55 55 55 55 55 55 55 54 54 55 55 55 55 55 55 54 55 55 55 55 55 55 55 55 55 54 54 54 54 54
55 55 55 56 56 55 55 54 54 54 55 57 57 55 53 53 53 52 50 47 45 43 41 37 35 35 35 32 32 31 30 31 32 34 33 35 36 37 37 37 37 37 37 38 41 44 46 46 46 45 46 47 49 51 54 55 56 56 56 56 56 56 56 56 55 55 55 55 54 54 54 54 54 54 55 55 55 55 55 55 54 54 53 54 54 54 54 54 54 55 55 55 54 54 55 55 55 54 54 54 54 54 54
55 55 55 55 55 55 55 54 54 54 55 55 54 53 50 50 49 47 46 45 43 40 37 35 34 35 34 32 32 32 31 31 32 32 33 34 35 35 35 35 36 36 37 38 41 44 45 45 45 45 45 46 49 51 55 55 55 55 55 55 55 55 55 55 55 55 55 54 54 54 53 53 53 53 54 55 55 55 55 54 53 53 53 53 53 53 54 54 54 54 55 55 54 54 54 54 54 54 54 53 54 54 54
54 54 54 55 55 55 55 54 55 55 55 55 53 51 47 47 46 46 44 44 42 40 37 35 34 34 33 32 32 32 32 32 32 32 33 33 33 33 33 34 35 36 37 39 41 43 44 44 44 45 45 47 48 51 54 55 55 55 55 55 55 55 55 54 54 54 54 54 54 54 53 53 53 53 53 54 54 55 55 54 53 53 53 53 53 53 53 53 53 54 54 54 54 54 54 54 54 54 53 53 53 53 54
54 54 54 55 55 55 55 55 55 56 56 55 54 51 47 47 46 46 44 43 42 40 37 34 34 34 34 33 33 32 33 33 32 32 33 33 33 32 32 33 34 36 37 40 41 42 42 43 43 44 45 46 48 50 52 54 55 55 55 55 54 54 54 53 53 53 53 53 53 53 53 53 52 52 52 53 54 54 54 54 53 53 54 54 53 53 53 53 53 53 54 54 54 54 54 53 53 53 53 53 53 53 53
54 54 54 55 55 55 55 55 55 56 55 55 54 52 48 46 46 45 44 43 41 39 37 36 36 37 38 37 35 33 33 32 33 33 35 36 35 33 32 32 34 36 38 40 41 41 41 41 42 44 45 46 48 50 51 53 54 55 54 54 54 53 53 52 52 52 52 52 53 53 53 52 52 52 52 52 53 53 54 54 54 54 54 54 54 54 53 53 53 53 53 53 54 53 53 53 53 53 52 52 53 53 53
54 54 54 55 55 55 55 55 55 55 55 54 53 52 49 46 45 44 43 43 41 40 39 38 40 41 40 41 38 35 33 33 33 33 35 37 36 34 32 32 33 35 37 38 39 39 38 38 40 43 45 46 48 49 51 53 54 54 54 53 53 52 52 51 51 51 51 51 51 52 52 51 51 51 51 51 52 53 53 53 53 54 54 55 55 54 54 53 53 52 52 53 53 53 53 53 53 53 52 52 53 53 53
54 54 54 55 55 55 54 55 55 55 54 53 52 51 49 47 46 44 43 42 41 40 38 38 39 39 39 39 37 36 37 37 35 33 34 35 35 33 32 32 33 34 36 37 37 36 35 36 37 40 43 44 46 48 50 52 53 54 53 52 52 51 50 50 50 50 50 50 50 50 50 50 50 50 50 51 51 52 52 53 53 53 54 55 55 54 54 53 52 52 52 52 52 52 52 52 52 52 52 52 53 53 53
53 54 54 55 55 54 54 55 55 55 54 53 52 51 48 47 46 44 43 42 41 39 37 38 38 39 40 39 38 37 38 37 35 33 33 34 34 33 32 32 32 34 36 37 37 37 36 35 36 37 40 41 43 45 47 50 52 53 52 52 51 50 50 49 49 48 48 48 49 49 50 50 50 50 49 50 50 51 51 52 52 53 54 54 54 54 54 53 52 52 52 52 52 52 52 52 52 52 52 52 53 53 53
53 54 54 54 54 54 54 54 54 54 53 52 51 50 48 46 45 45 44 43 41 40 38 39 39 40 41 40 40 40 40 38 36 35 34 34 33 32 33 32 33 34 36 37 37 37 37 36 35 36 37 39 40 42 43 46 49 51 52 51 50 50 49 48 47 47 47 47 47 48 49 49 49 49 49 49 49 50 50 51 52 52 53 53 54 54 53 53 52 52 52 52 52 52 52 52 52 52 52 52 52 52 52
54 54 54 54 54 54 54 54 54 54 53 51 51 50 48 46 45 45 44 43 41 39 38 38 39 39 39 40 40 41 41 37 36 35 34 35 34 33 32 32 32 34 35 36 36 37 37 36 34 33 35 37 39 41 41 43 45 48 51 51 50 50 49 48 47 46 46 46 46 47 47 48 48 48 48 48 48 49 50 50 51 52 52 53 53 53 53 52 52 52 52 52 52 52 52 51 51 51 52 52 52 52 52
54 54 54 54 54 54 54 54 54 53 53 51 51 50 47 46 45 44 43 42 41 39 37 37 37 38 38 39 40 40 41 37 36 35 36 36 35 34 32 32 33 34 34 34 35 36 37 35 34 33 33 35 37 39 41 41 43 45 48 50 50 49 48 47 47 46 45 45 45 46 46 47 47 47 47 47 47 48 49 50 51 51 52 52 52 53 53 52 52 51 51 52 52 52 52 51 51 51 51 51 51 51 51
53 53 53 53 54 54 53 53 53 53 53 52 51 50 47 45 44 43 42 41 40 37 36 36 37 37 37 38 38 38 37 35 34 34 34 35 35 34 33 33 34 34 34 34 34 35 35 34 33 33 32 34 36 38 41 42 43 44 46 50 50 50 48 47 46 46 45 45 44 44 44 45 46 46 46 46 46 47 48 49 50 51 51 52 52 52 52 52 51 51 51 52 52 52 52 51 51 51 51 51 51 50 50
53 53 53 53 53 53 54 53 53 53 53 52 52 50 47 46 45 44 43 42 40 37 35 36 36 37 37 37 37 37 36 34 33 33 33 34 34 34 33 32 33 34 34 34 34 35 34 34 33 33 33 34 36 38 41 43 44 44 44 47 49 50 49 48 47 46 45 45 44 43 43 44 44 45 45 46 46 46 47 48 50 50 51 51 51 52 52 52 51 51 50 51 51 51 51 51 51 50 50 50 50 50 50
53 52 53 53 53 53 53 53 53 52 53 52 52 50 48 46 46 45 44 42 39 37 37 37 38 39 40 39 38 37 37 36 34 33 35 35 36 36 34 32 33 34 35 36 37 37 33 33 33 33 33 34 35 37 39 42 43 43 44 45 46 48 48 47 47 46 46 44 44 43 42 42 43 43 44 44 45 45 46 47 49 50 50 51 51 51 52 51 51 50 50 50 50 51 51 51 50 50 50 50 50 50 50
52 52 52 52 52 52 53 53 53 52 52 52 52 51 49 47 46 45 44 42 40 38 39 40 40 40 41 41 40 39 37 36 33 32 34 35 36 37 36 34 34 34 35 37 39 38 33 33 33 34 34 35 35 37 39 40 41 42 43 44 44 45 46 46 46 46 46 45 43 42 41 41 41 42 42 43 43 44 45 46 48 49 50 50 50 51 51 51 51 50 50 50 50 50 50 50 50 50 50 50 50 50 50
51 51 52 52 52 52 52 53 53 52 52 52 52 51 49 48 46 45 44 42 41 40 39 40 40 41 41 41 41 40 38 35 33 32 32 34 35 36 36 36 36 36 36 37 37 37 33 33 34 34 35 35 35 36 37 38 39 40 41 41 42 42 42 41 42 44 46 46 44 42 41 40 40 41 41 41 42 42 43 45 46 48 50 50 50 50 51 51 51 50 50 50 50 50 50 50 50 50 50 50 50 50 50
51 51 52 52 52 52 53 53 53 52 52 52 51 51 49 48 46 46 44 43 42 41 40 40 40 41 41 41 41 39 37 35 33 32 32 32 33 35 36 37 37 37 36 37 37 37 34 33 33 34 35 35 36 36 37 36 36 36 37 37 38 38 38 38 38 40 42 43 43 42 41 39 39 39 40 40 41 41 41 43 45 47 49 50 50 50 50 51 50 50 50 50 50 50 50 50 50 50 50 50 50 50 50
51 51 52 52 52 52 52 53 53 53 52 52 51 50 49 48 46 46 44 43 42 41 40 40 40 40 40 40 39 38 36 35 33 31 31 31 32 34 35 36 36 36 37 37 37 37 35 33 33 34 34 35 36 36 35 34 34 34 35 34 35 36 37 38 38 37 37 40 41 41 41 39 38 37 38 39 39 40 40 41 44 46 48 49 49 50 50 50 50 50 50 50 50 50 50 50 50 50 50 50 50 50 50
50 51 51 52 52 52 52 52 53 53 52 52 51 51 50 48 47 46 44 42 42 42 41 41 40 39 39 39 38 37 34 34 33 31 30 31 32 33 34 34 35 36 36 37 37 37 36 35 35 35 35 35 35 35 33 33 33 33 33 34 35 37 39 40 39 37 37 37 39 40 42 40 38 37 37 38 39 39 40 40 43 46 48 49 49 49 50 50 50 50 50 50 50 50 50 50 50 50 50 50 49 49 49
51 51 51 51 52 52 52 52 53 53 52 52 51 51 50 49 47 46 44 42 43 43 44 42 41 40 39 38 37 36 33 32 32 32 31 31 32 33 33 33 34 35 36 36 37 37 37 37 37 37 37 36 34 33 32 32 32 32 33 34 36 38 39 39 38 38 38 37 37 38 40 41 40 39 38 38 39 39 40 41 43 46 48 48 48 48 49 49 50 50 50 50 50 50 49 49 49 49 49 49 49 49 49
52 51 51 51 52 52 52 53 53 53 52 52 51 51 50 49 48 46 46 44 44 44 44 44 43 42 41 38 37 34 32 32 32 32 31 31 31 32 32 33 33 34 36 36 36 37 37 37 38 38 37 36 34 32 31 32 32 32 33 35 37 38 39 38 38 38 38 38 37 37 37 38 39 40 40 40 40 40 41 41 43 46 47 47 47 47 47 47 48 48 49 49 49 49 48 48 48 49 49 49 49 49 49
52 52 51 51 52 52 52 53 53 53 53 52 51 51 50 49 48 47 46 46 45 44 44 44 43 43 43 39 37 35 32 32 32 31 30 29 30 31 32 33 34 34 34 35 36 36 37 37 37 37 36 36 34 32 31 32 32 32 34 35 37 38 38 38 38 37 37 37 36 36 37 37 37 38 39 40 41 41 41 40 42 45 47 47 46 46 46 46 46 46 46 47 47 47 47 48 48 48 49 49 49 49 49
53 52 51 51 52 52 52 53 54 54 53 52 51 51 50 49 48 47 46 46 45 44 43 43 43 42 43 41 39 36 32 32 32 32 31 30 31 32 33 34 35 34 34 34 35 36 36 37 37 36 35 34 34 33 33 35 34 33 32 34 36 38 38 37 37 37 34 36 36 36 37 36 35 35 36 37 38 40 41 40 41 44 46 46 45 45 44 43 43 43 44 45 46 46 46 47 48 48 49 49 49 49 49
53 53 52 52 52 52 52 53 54 54 53 52 51 51 50 50 48 47 46 46 45 44 44 43 42 42 42 42 40 36 32 32 32 33 33 34 34 35 36 34 34 35 34 34 34 35 36 36 35 34 33 34 33 33 33 35 35 33 32 33 36 37 37 37 37 36 35 35 35 35 37 35 34 33 32 34 36 38 40 40 41 42 44 44 43 42 42 41 41 41 41 42 44 45 45 46 47 48 49 49 49 49 49
54 53 52 52 52 52 52 53 54 54 53 52 52 51 50 50 49 48 47 46 46 45 45 44 42 41 41 40 38 36 32 32 32 33 33 34 35 36 37 34 34 34 34 34 34 34 37 34 33 33 33 32 32 32 32 34 34 33 32 35 36 37 37 37 36 35 36 34 34 34 37 35 33 31 29 31 33 36 38 40 41 42 43 42 41 41 40 40 40 39 40 41 42 43 44 45 46 47 48 48 49 49 49
55 54 53 52 52 52 52 54 54 54 53 53 52 51 50 50 49 48 48 47 46 46 45 45 43 41 39 37 36 35 34 32 33 34 34 33 32 33 34 34 33 32 33 33 34 35 38 33 32 32 32 32 32 32 33 33 33 32 32 34 35 35 36 36 35 34 34 32 32 33 35 35 33 30 29 31 32 33 36 38 40 42 43 42 41 41 40 39 39 38 38 39 41 42 43 44 46 47 48 48 48 48 48
54 54 53 53 52 52 52 54 54 54 53 53 53 52 51 50 50 50 50 48 47 46 44 44 43 41 38 36 35 34 33 32 33 34 34 32 30 30 31 32 32 32 32 33 34 34 35 32 32 32 32 31 31 32 32 33 32 32 32 32 32 33 33 34 33 33 32 31 32 33 35 35 33 32 31 32 32 32 32 36 38 40 43 42 42 42 42 40 39 38 38 39 40 41 42 43 45 46 47 48 47 47 47
55 54 54 53 53 52 53 54 54 54 54 54 53 53 52 52 51 50 49 48 46 45 44 43 42 41 38 36 34 34 33 33 33 32 32 31 30 30 29 30 31 32 32 33 34 35 34 32 31 31 31 31 31 31 31 32 31 30 31 30 30 30 30 31 31 31 31 32 32 33 34 34 34 33 32 32 32 33 32 34 35 36 38 39 40 41 41 40 39 38 38 39 40 41 41 43 44 46 46 47 47 47 47
55 55 54 54 53 53 53 54 54 54 55 54 53 53 52 51 50 50 49 48 46 45 44 42 41 40 40 37 36 34 32 34 34 33 32 31 32 33 34 32 30 29 29 30 32 35 36 34 32 31 31 30 30 30 30 31 30 29 29 30 29 28 28 29 30 31 32 32 32 33 33 34 33 32 32 31 31 32 33 33 33 33 34 34 36 38 41 41 40 38 38 39 41 41 41 42 43 45 46 46 47 47 46
55 55 54 54 54 53 53 54 54 55 55 54 53 52 52 51 50 50 49 48 46 45 43 41 40 39 39 39 37 34 32 35 35 35 36 34 34 36 38 34 31 28 28 28 30 32 35 33 33 32 32 31 30 29 29 29 30 30 30 29 28 28 28 29 30 31 32 32 32 33 33 33 32 32 32 31 31 31 31 31 32 32 32 32 33 36 37 39 37 36 37 39 41 41 41 41 42 44 45 46 46 46 46
55 55 54 54 54 54 54 54 55 55 54 54 53 53 52 52 51 50 50 49 47 45 44 41 40 38 38 37 36 35 34 37 36 36 37 38 38 37 37 35 33 33 35 32 29 29 32 32 32 32 32 32 30 29 28 29 29 29 30 28 28 29 28 28 29 30 31 32 32 33 33 34 33 32 32 32 32 31 30 30 31 32 31 32 32 33 33 36 36 36 37 39 40 40 40 40 41 42 44 45 45 46 46
55 55 55 54 54 54 54 54 55 55 54 54 53 53 52 52 51 51 50 49 47 45 43 41 40 38 37 37 37 36 35 36 37 36 36 39 39 38 37 35 35 35 35 33 31 29 28 31 31 30 32 32 30 29 29 29 29 30 32 30 29 28 28 27 27 28 28 31 32 33 33 33 33 32 31 32 32 32 29 31 31 31 31 31 32 33 35 38 37 36 39 39 39 39 38 40 41 41 43 44 45 45 46
56 55 55 55 54 54 54 54 54 54 54 54 53 53 52 52 52 51 51 50 48 46 43 42 40 38 37 37 37 36 36 36 36 36 35 37 39 40 40 37 35 32 32 30 29 30 32 31 30 29 31 32 30 29 29 29 29 29 33 32 30 28 27 27 27 27 27 30 32 34 33 33 33 32 32 32 32 32 30 31 31 31 31 30 31 32 32 33 33 34 37 38 39 39 38 39 40 41 42 43 44 45 45
56 56 55 55 55 54 54 54 54 54 54 54 53 53 52 52 52 52 51 50 49 46 45 43 41 39 37 37 37 37 36 35 36 37 36 36 37 38 38 40 40 39 36 34 34 34 37 35 32 29 30 33 32 30 29 29 29 29 32 32 30 28 28 28 27 28 28 30 32 33 33 33 32 31 31 31 32 32 32 32 32 32 32 32 32 31 31 30 31 32 36 38 38 38 38 39 40 41 41 42 43 44 45
57 56 56 55 55 54 54 54 54 54 54 54 54 53 53 52 52 52 51 51 50 48 46 45 43 41 38 37 37 36 35 35 35 36 37 36 36 36 35 38 40 41 41 41 41 41 40 37 34 32 32 32 33 34 34 31 29 29 31 31 30 29 28 28 27 27 28 29 31 32 32 33 31 30 30 30 31 32 32 32 32 32 32 32 32 32 31 31 32 34 35 38 39 39 38 39 40 41 41 42 43 44 44
57 57 56 55 55 55 54 54 54 54 54 54 54 53 53 52 52 52 51 51 50 49 47 46 45 43 41 39 37 36 35 35 36 36 36 35 35 35 33 35 37 38 38 39 40 40 40 38 37 36 35 32 32 33 35 34 32 31 30 31 31 30 29 27 26 26 27 28 29 30 31 30 30 30 30 30 31 32 32 32 32 32 32 32 32 33 33 35 36 37 39 41 41 40 39 39 40 40 41 41 42 43 44
57 57 57 56 55 55 54 54 54 54 54 54 54 53 53 52 52 52 52 51 51 50 49 48 46 45 43 41 38 36 36 36 36 36 35 34 34 34 34 33 33 34 35 36 37 37 38 38 39 38 37 35 33 32 33 34 34 33 32 31 31 30 29 27 27 27 26 29 29 28 29 29 29 30 30 30 31 31 32 32 32 32 32 32 32 32 33 32 34 37 41 40 40 39 38 39 39 40 40 41 41 42 43
57 57 57 56 56 55 54 54 54 54 54 54 54 53 53 53 53 52 52 51 51 50 50 49 48 46 45 42 40 38 37 37 37 37 36 34 34 35 36 34 32 32 33 34 35 35 35 37 39 40 40 38 36 33 32 33 34 34 33 32 32 31 30 29 29 29 28 29 29 29 29 28 28 29 29 29 30 31 32 32 32 32 32 32 32 32 33 32 33 34 38 40 40 39 38 38 38 39 40 41 41 42 43